Погода в Буе

Россия / Республика Бурятия     50°38′28″N   107°58′15″E
темп.,
°C
ветер,
м/с
пор.,
м/с
влажн.,
%
обл.,
%
осадки,
мм/ч
давл.,
гПа
погр.,
м
19 апреля, пн
пн1923:00−1св223284 0.0 102026
02:00−3всв223717 0.0 102118
05:00−4св11395 0.0 102112
08:000всв11305 0.0 1020224
11:00+8з12245 0.0 1016659
14:00+12з24235 0.0 10111037
17:00+15юз47214 0.0 10072341
20:00+9ююв22354 0.0 100717
20 апреля, вт
вт2023:00+6всв1241100 0.0 100618
02:00+6всв1240100 0.0 100418
05:00+5ссз334262 0.0 100535
08:00+7ссз234243 0.0 1007430
11:00+9сз3238100 0.0 1008993
14:00+13зсз12305 0.0 10051038
17:00+14ссз322716 0.0 10031257
20:00+7с5104292 0.0 1006396
21 апреля, ср
ср2123:00+4ссв224888 0.0 100883
02:00+1ссз23555 0.0 100950
05:00−2ссз22635 0.0 101231
08:00+1ссз2353100 0.0 1013525
11:00+5с334255 0.0 10121143
14:00+9с333491 0.0 10101663
17:00+7с663793 0.0 10111413
20:00+1с485394 0.0 1017696
22 апреля, чт
чт2223:00−2с366625 0.0 1021311
02:00−2с1657100 0.0 1023522
05:00−3с1252100 0.0 102447
08:000св3436100 0.0 1025883
11:00+3св3431100 0.0 10241236
14:00+5юв3440100 0.4 10221331
17:00+5в4648100 0.2 1022958
20:00+3св1254100 0.2 102342
23 апреля, пт
пт2323:000с3689100 1.9 1029358
02:00−1сз2597100 8.1 1031314
05:00−3сз1295100 0.9 103384
08:00−1ссз2484100 1.1 1036489
11:00+2с2477100 0.1 1036943
14:00+4ссв4569100 0.3 10361231
17:00+5ссв355695 0.1 10361381
20:00+1св1183100 0.1 103811